Время (UTC), дата Ветер
(°,м/с) 
Видим.   Явления Облачность Т
(°С)
Тd
(°С)
f(%) Тe
(°С)
Pmin
(гПа)
dP
(гПа)
Po
(мм)
O2
(г/м3)
Тmin Tmax R s Состояние
почвы
00 01.12.11 250 (З) 4000 м  дымка{туман}  9/9 300 м 
[St]
+1.1 -0.6 89 1026.1  -0.5  767  308           
03 01.12.11 220 (ЮЗ) 4000 м  дымка  9/0 средняя 
[Ac trans]
+0.1 -1.2 91 +1  1025.8  -0.4  766  309           
06 01.12.11 220 (ЮЗ) 10 км    10/8 1000 м средняя 
[Sc|Ac und]
+0.8 -1.3 86 +1  1026.2  0.5  767  308  -0.5         
09 01.12.11 250 (З) 1000 м    10/3 1000 м средняя, верхняя 
[Sc|Ac trans|Cc]
+6 -1.3 59 +6  1025  -1.2  766  302           
12 01.12.11 250 (З) 10 км    9/9 1000 м кучево-дожд. 
[Cb cap]
+8 -0.9 53 +7  1022.9  -2.1  764  299           
15 01.12.11 200 (Ю) 10 км    10/10 1000 м 
[Sc]
+6.4 +0.5 66 +5  1022.7  -0.2  764  301    +8.4       
18 01.12.11 220 (ЮЗ) 10 км    9/9 1000 м 
[Sc]
+6.3 +0.1 64 +5  1021.9  -0.8  764  301    +8.4       
21 01.12.11 210 (ЮЗ) 10 км    8/8 1000 м 
[Sc]
+6.1 +1.9 74 +5  1021.2  -0.8  763  300           
00 02.12.11 210 (ЮЗ) 10 км    10/10 600 м 
[Sc]
+6 +2.4 78 +5  1020.3  -0.8  762  300           
03 02.12.11 300 (СЗ) 4000 м  слаб. ливневой дождь  10/10 600 м кучево-дожд. 
[Cb cap]
+3.4 +2.1 91 +3  1021.2  0.9  763  303           
06 02.12.11 270 (З) 1000 м  ливневой снег  10/10 200 м кучево-дожд. 
[Cb cap]
+0.9 +0.2 95 1023  1.7  764  307  +3.4    0.6     
09 02.12.11 240 (ЮЗ) 2000 м  слаб. ливневой дождь  10/10 200 м кучево-дожд. 
[Cb cap]
+1.6 +0.9 95 +1  1023.4  0.5  765  306           
12 02.12.11 230 (ЮЗ) 10 км  {ливн. осадки}  10/10 600 м кучево-дожд. 
[Cb cap]
+3.7 +2.2 90 +3  1023.6  0.2  765  304           
15 02.12.11 270 (З) 10 км    10/10 600 м 
[Sc]
+4.5 +2 84 +4  1024.6  766  303    +4.5       
18 02.12.11 310 (СЗ) 10 км    10/10 600 м 
[St]
+3.8 +2.3 90 +3  1025.2  0.6  766  304    +4.5     
21 02.12.11 290 (З) 10 км    10/6 600 м средняя 
[St|Ac und]
+2.9 +0.7 85 +4  1026.4  1.1  767  306           
00 03.12.11 300 (СЗ) 10 км    10/8 600 м средняя 
[St|Ac und]
+3 +0.6 84 +4  1026.9  0.6  767  306           
03 03.12.11 260 (З) 10 км    9/9 600 м 
[St]
+2.5 -1.9 73 +3  1027.4  0.5  768  307           
06 03.12.11 270 (З) 10 км    10/10 600 м 
[St]
+2.8 -1.9 71 +4  1028.7  1.3  769  307  +2.5         
09 03.12.11 250 (З) 10 км    1/0 средняя 
[Ac trans]
+5.9 -0.7 63 +7  1028.3  -0.3  768  303           
12 03.12.11 090 (В) 10 км    9/5 1000 м средняя, верхняя 
[Sc|Ac trans|Ci fib]
+5.5 +0.6 71 +6  1027.7  -0.6  768  303           
15 03.12.11 090 (В) 10 км    9/6 1000 м средняя 
[Sc|Ac trans]
+4.4 +0.4 75 +4  1027.7  768  304    +6       
18 03.12.11 120 (ЮВ) 10 км    10/8 1000 м средняя 
[Sc|Ac und]
+4 +0.7 79 +5  1027.2  768  305    +6       
21 03.12.11 090 (В) 10 км    10/10 600 м 
[Sc]
+4.1 +1.1 81 +5  1026.1  -1.1  767  304           
00 04.12.11 150 (ЮВ) 10 км    9/8 1000 м средняя 
[Sc|Ac trans]
+4.5 +0.8 77 +4  1025.4  -0.6  766  304           
03 04.12.11 160 (Ю) 10 км    10/10 600 м 
[St]
+5 +0.9 75 +6  1024.9  -0.5  766  303           
06 04.12.11 тихо ()   10 км    5/5 600 м 
[St]
+4.9 +0.8 75 +5  1025.2  0.2  766  303  +3.1         
09 04.12.11 180 (Ю) 10 км    4/4 600 м 
[Sc]
+9.7 +2.8 62 +10  1024  -1.1  765  297           
12 04.12.11 210 (ЮЗ) 10 км    ясно 
+10.6 +2.7 58 +10  1023.2  -0.8  765  296           
15 04.12.11 200 (Ю) 10 км    3/3 600 м 
[Sc]
+8.4 +0.9 59 +8  1022.8  -0.4  764  299    +11       
18 04.12.11 200 (Ю) 10 км    ясно 
+7.3 +0.6 62 +8  1022.5  -0.3  764  300    +11       
21 04.12.11 200 (Ю) 10 км    ясно 
+8 +1.7 64 +8  1022.3  -0.2  764  299           
00 05.12.11 200 (Ю) 10 км    ясно 
+6.8 -2.2 53 +7  1021.3  -1  763  300           
03 05.12.11 тихо ()   10 км    3/0 средняя, верхняя 
[Ac trans|Ci fib]
+3.1 -1.3 73 +3  1020.8  -0.6  763  304           
06 05.12.11 200 (Ю) 10 км    3/0 средняя, верхняя 
[Ac trans|Ci]
+8.8 -2 47 +8  1020.8  0.1  763  298  +3.1         
09 05.12.11 210 (ЮЗ) 10 км    ясно 
+14.2 -3.9 28 +14  1019.6  -1.1  762  292           
12 05.12.11 210 (ЮЗ) 10 км    ясно 
+14.5 -4.4 27 +14  1018.8  -0.7  761  292           
15 05.12.11 210 (ЮЗ) 10 км    ясно 
+10.3 -3.3 38 +10  1019  0.1  761  296    +15.1       
18 05.12.11 200 (Ю) 10 км    ясно 
+8.1 -1.6 50 +8  1018.6  -0.4  761  298    +15.1       
21 05.12.11 180 (Ю) 10 км    ясно 
+7 -3.2 48 +8  1018.3  -0.3  761  299           
00 06.12.11 210 (ЮЗ) 10 км    ясно 
+7.8 -3.2 46 +9  1018.3  -0.6  761  298           
03 06.12.11 200 (Ю) 10 км    ясно 
+9.8 -2.7 41 +9  1017.5  -0.2  760  296           
06 06.12.11 220 (ЮЗ) 10 км    ясно 
+10 -1.7 44 +11  1017.7  0.2  761  296  +5.2         
09 06.12.11 210 (ЮЗ) 10 км    10/0 средняя, верхняя 
[As op|Ci]
+13.9 -1.9 33 +14  1016.9  -0.7  760  292           
12 06.12.11 180 (Ю) 10 км    10/0 средняя, верхняя 
[As op|Ci]
+14.9 -1.8 32 +16  1015.5  -1.4  759  290           
15 06.12.11 200 (Ю) 10 км    10/10 1000 м 
[Sc]
+12.5 -1.5 38 +14  1015.8  0.3  759  293    +15.5       
18 06.12.11 210 (ЮЗ) 10 км    9/8 1000 м средняя 
[Sc|Ac As]
+12.8 -2.7 34 +14  1015  -0.8  759  292    +15.5       
21 06.12.11 230 (ЮЗ) 10 км    10/10 600 м кучево-дожд. 
[Cb cap]
+12.6 -3.4 33 +13  1014.8  -0.2  758  292           
00 07.12.11 210 (ЮЗ) 10 км    10/10 600 м кучево-дожд. 
[Cb cap]
+13 -1.3 37 +13  1015  0.2  759  292           
03 07.12.11 190 (Ю) 10 км    10/10 600 м кучево-дожд. 
[Cb cap]
+11.8 +1.5 49 +12  1014.9  0.1  758  293           
06 07.12.11 180 (Ю) 10 км  слаб. ливневой дождь  10/8 1000 м кучево-дожд., средняя 
[Cb cap|Ac und]
+11.9 +1.4 49 +12  1015.1  0.2  759  293  +11.8         
09 07.12.11 220 (ЮЗ) 10 км  {ливн. осадки}  9/6 1000 м кучево-дожд., средняя 
[Cb cap|Ac trans]
+13.1 +0.6 42 +14  1014.8  -0.3  758  292           
12 07.12.11 190 (Ю) 10 км  слаб. ливневой дождь  10/10 1000 м кучево-дожд. 
[Cb cap]
+13.1 +1.9 46 +14  1014.4  -0.4  758  291           
15 07.12.11 270 (З) 10 км    10/8 600 м кучево-дожд., средняя 
[Cb cap|Ac und]
+12.6 +2.6 51 +14  1014.8  0.4  758  292    +14.3       
18 07.12.11 040 (СВ) 10 км    10/10 600 м кучево-дожд. 
[Cb cap]
+9.9 +3.5 64 +11  1014.6  0.4  758  294    +14.3       
21 07.12.11 тихо ()   10 км    8/5 1000 м кучево-дожд., верхняя 
[Cb cap|Ci fib]
+7.8 +3.1 72 +8  1013.2  -1.4  757  296           
00 08.12.11 060 (СВ) 10 км    10/10 1000 м кучево-дожд. 
[Cb cap]
+7.6 +2.6 71 +9  1011.7  -1.5  756  296           
03 08.12.11 080 (В) 10 км    10/10 600 м кучево-дожд. 
[Cb cap]
+7.8 +0.4 60 +9  1009.8  -1.8  755  296           
06 08.12.11 тихо ()   10 км    10/8 1000 м кучево-дожд., средняя 
[Cb cap|Ac und]
+7 +1 66 +7  1009.9  0.1  755  296  +6.8         
09 08.12.11 тихо ()   10 км    10/6 1000 м кучево-дожд., средняя 
[Cb cap|Ac und]
+9.9 +3 62 +10  1009.5  -0.4  754  293           
12 08.12.11 290 (З) 10 км    10/8 1000 м средняя 
[Sc|Ac und]
+9.4 +4.9 74 +10  1010.3  0.8  755  293           
15 08.12.11 290 (З) 4000 м  слаб. ливневой дождь  10/10 300 м кучево-дожд. 
[Cb cap]
+7 +6 93 +8  1011.9  1.5  756  296    +13.7       
18 08.12.11 290 (З) 4000 м  слаб. ливневой дождь  10/10 300 м кучево-дожд. 
[Cb cap]
+6.2 +5.4 95 +7  1013.2  1.3  757  297    +13.7     
21 08.12.11 300 (СЗ) 4000 м  слаб. ливневой дождь  10/10 200 м кучево-дожд. 
[Cb cap]
+5.4 +4.5 94 +5  1014.1  0.9  758  299           
00 09.12.11 300 (СЗ) 4000 м  слаб. ливневой дождь  10/10 300 м кучево-дожд. 
[Cb cap]
+5.1 +4.2 94 +6  1014.7  0.6  758  299           
03 09.12.11 290 (З) 4000 м  слаб. ливневой дождь  10/10 300 м кучево-дожд. 
[Cb cap]
+4.9 +4.1 94 +5  1015.5  0.8  759  300           
06 09.12.11 320 (СЗ) 2000 м  слаб. ливневой дождь  10/10 100 м кучево-дожд. 
[Cb cap]
+4.5 +3.8 95 +4  1017  1.4  760  301  +4.9    13     
09 09.12.11 320 (СЗ) 1000 м  слаб. ливневой дождь  10/10 100 м кучево-дожд. 
[Cb cap]
+4.5 +3.8 95 +4  1018  1.1  761  301           
12 09.12.11 290 (З) 2000 м  в посл. час дождь{ливн. осадки}  10/10 200 м 
[Frnb]
+4.5 +3.7 95 +4  1019.5  1.5  762  301           
15 09.12.11 320 (СЗ) 1000 м  слаб. морось  10/10 100 м 
[St]
+4.3 +3.6 95 +4  1021.8  2.2  764  302    +4.8       
18 09.12.11 310 (СЗ) 2000 м  слаб. морось  10/10 200 м 
[St]
+3.5 +2.6 94 +3  1023.3  1.6  765  304    +4.8     
21 09.12.11 300 (СЗ) 10 км  {морось}  10/10 600 м 
[St]
+2.3 +0.7 89 +1  1025.4  766  306           
00 10.12.11 290 (З) 10 км  {морось}  10/10 600 м 
[St]
+2.8 +0.7 86 +2  1026.5  1.1  767  306           
03 10.12.11 290 (З) 10 км    10/10 600 м 
[St]
+2.6 +0 83 +3  1027.1  0.6  767  306           
06 10.12.11 260 (З) 10 км    10/10 600 м 
[St]
+1.9 -0.8 82 +3  1028.2  1.1  768  308  +2.3         
09 10.12.11 250 (З) 10 км    10/10 600 м 
[St]
+3 -0.5 78 +4  1028.4  0.2  768  306           
12 10.12.11 170 (Ю) 10 км    ясно 
+5.6 -0.3 66 +6  1027.6  0.2  768  303           
15 10.12.11 110 (В) 10 км    ясно 
+2.9 +0.1 82 +4  1027.8  0.1  768  306    +5.9       
18 10.12.11 180 (Ю) 10 км    6/0 средняя 
[Ac trans]
+3.2 +0.3 81 +4  1027.4  -0.4  768  306    +5.9       
21 10.12.11 150 (ЮВ) 10 км    3/0 средняя 
[Ac trans]
+4.3 +1.2 80 +5  1026.9  -0.5  767  304           
00 11.12.11 160 (Ю) 10 км    8/0 средняя 
[Ac trans]
+4.6 +1.1 78 +5  1026  -0.8  767  304           
03 11.12.11 090 (В) 4000 м  дымка  10/0 средняя, верхняя 
[As trans|Cs]
+2.5 +0.5 87 +3  1024.5  -1.5  766  306           
06 11.12.11 090 (В) 10 км    10/4 300 м средняя, верхняя 
[St|Ac cast|Ci fib]
+3.5 +1 84 +4  1023.8  -0.7  765  304  +2.5         
09 11.12.11 210 (ЮЗ) 10 км    8/4 600 м средняя, верхняя 
[Cu Sc|Ac cast|Ci fib]
+10.1 +1.6 55 +9  1022.6  -1  764  297           
12 11.12.11 210 (ЮЗ) 10 км    10/10 1000 м 
[Sc]
+9.8 +1.8 57 +9  1021.4  -1.2  763  297           
15 11.12.11 220 (ЮЗ) 10 км    10/8 1000 м средняя 
[Sc|Ac und]
+9.3 +2 60 +8  1021.6  0.1  763  297    +10.8       
18 11.12.11 220 (ЮЗ) 10 км  в посл. час ливневой дождь  10/8 1000 м кучево-дожд., средняя 
[Cb cap|Ac und]
+9.2 +2.8 64 +9  1022.2  0.6  764  297    +10.8       
21 11.12.11 240 (ЮЗ) 10 км    10/10 1000 м 
[Sc]
+9 +3.5 68 +8  1023  0.8  764  298           
00 12.12.11 330 (СЗ) 4000 м  слаб. ливневой дождь  10/10 300 м кучево-дожд. 
[Cb cap]
+6.4 +5.3 93 +6  1025.3  2.3  766  301           
03 12.12.11 тихо ()   4000 м  слаб. ливневой дождь  10/10 300 м кучево-дожд. 
[Cb cap]
+3.5 +2.4 92 +4  1027.8  2.4  768  305           
06 12.12.11 040 (СВ) 10 км  слаб. ливневой дождь  10/10 300 м кучево-дожд. 
[Cb cap]
+2.9 +1.4 90 +4  1029.6  1.8  769  307  +3.5         
09 12.12.11 060 (СВ) 10 км  {ливн. осадки}  10/10 1000 м 
[Sc]
+3.3 +0.7 83 +4  1030.1  0.5  770  306           
12 12.12.11 070 (В) 10 км  {дождь}  10/10 1000 м 
[Sc]
+3.9 +1.6 85 +5  1029.7  -0.4  769  305           
15 12.12.11 060 (СВ) 4000 м  дымка  10/10 300 м 
[St]
+3.7 +1.9 88 +3  1030.3  0.6  770  306    +3.9       
18 12.12.11 060 (СВ) 4000 м  дымка{дождь}  10/10 300 м 
[St]
+3.6 +2.3 91 +4  1030.1  -0.3  770  306    +3.9  0.8     
21 12.12.11 050 (СВ) 4000 м  дымка  10/10 300 м 
[St]
+3.4 +2.1 91 +4  1029.5  -0.6  769  306           
00 13.12.11 070 (В) 4000 м  дымка  9/9 600 м средняя 
[Sc|Ac trans]
+3.1 +1.8 91 +3  1028.8  -0.7  769  306           
03 13.12.11 080 (В) 4000 м  дымка  8/5 1000 м средняя 
[Sc|Ac trans]
+2.7 +1.4 91 +2  1028.2  -0.6  768  306           
06 13.12.11 090 (В) 4000 м  дымка  8/8 1000 м 
[Sc]
+3.1 +1.9 92 +3  1028.3  0.1  768  306  +2.7    0.4     
09 13.12.11 070 (В) 10 км    9/9 1000 м 
[Sc]
+7.1 +3 75 +8  1027.4  -0.8  768  301           
12 13.12.11 070 (В) 10 км    10/4 1000 м средняя 
[Sc|Ac und]
+9.2 +4.5 72 +10  1026.5  -0.9  767  298           
15 13.12.11 050 (СВ) 10 км    9/5 1000 м средняя 
[Sc|Ac trans]
+7 +5 87 +8  1026.4  0.1  767  301    +9.2       
18 13.12.11 110 (В) 10 км    6/6 1000 м 
[Sc]
+7.4 +4.5 82 +8  1025.7  -0.7  767  300    +9.2       
21 13.12.11 060 (СВ) 4000 м    9/0 средняя 
[Ac trans]
+5.6 +4.1 90 +6  1025.4  -0.4  766  302           
00 14.12.11 100 (В) 4000 м  дымка  8/0 средняя, верхняя 
[Ac trans|Cc]
+4.5 +2.7 88 +5  1025.1  -0.2  766  303           
03 14.12.11 090 (В) н/о    н/о 
+3.9 +2.4 90 +5  1024.6  -0.5  766  304           
06 14.12.11 050 (СВ) 4000 м  дымка  9/3 1000 м средняя 
[Sc|Ac trans]
+4 +2.7 91 +5  1024.9  0.3  766  304  +3.5         
09 14.12.11 080 (В) 10 км    10/3 1000 м средняя, верхняя 
[Sc|Ac trans|Cs]
+8.6 +3.4 70 +10  1024.4  -0.5  766  299           
12 14.12.11 060 (СВ) 10 км    10/3 1000 м верхняя 
[Sc|Cs]
+10.7 +5.3 69 +12  1023.5  -0.8  765  296           
15 14.12.11 090 (В) 10 км    10/8 1000 м средняя, верхняя 
[Sc|Ac trans|Ci fib]
+7.8 +4.3 79 +9  1024.3  0.7  765  299    +11.5       
18 14.12.11 070 (В) 10 км    10/5 1000 м средняя 
[Sc|Ac und]
+6.4 +3.8 83 +7  1024.4  0.1  766  301    +11.5       
21 14.12.11 тихо ()   10 км    9/5 1000 м средняя 
[Sc|Ac trans]
+5 +3.4 89 +5  1024.9  0.4  766  303           
00 15.12.11 070 (В) 10 км  дымка  4/0 средняя 
[Ac trans]
+3 +1.8 92 +4  1024.8  -0.1  766  305           
03 15.12.11 тихо ()   10 км  дымка  3/0 средняя 
[Ac trans]
+1.8 +0.7 92 +2  1025.3  0.5  766  307           
06 15.12.11 тихо ()   4000 м  дымка  6/5 1500 м средняя 
[Sc|Ac trans]
+3 +1.4 89 +3  1026.1  0.8  767  305  +1.8         
09 15.12.11 тихо ()   10 км    3/1 1500 м средняя 
[Sc|Ac trans]
+10.5 +3.6 62 +11  1025.8  -0.2  767  297           
12 15.12.11 030 (СВ) 10 км    ясно 
+13.8 +3.1 48 +15  1024.8  -1  766  293           
15 15.12.11 070 (В) 10 км    ясно 
+8.2 +4.7 79 +9  1025.5  0.7  766  299    +13.8       
18 15.12.11 060 (СВ) 10 км    ясно 
+5.6 +3.8 88 +6  1025.1  -0.4  766  302    +13.8       
21 15.12.11 070 (В) 4000 м  дымка  ясно 
+3.4 +2.5 94 +4  1024  -1.1  765  304           
00 16.12.11 060 (СВ) 4000 м  дымка  ясно 
+1.5 +0.7 94 +2  1023.2  -0.9  765  306           
03 16.12.11 070 (В) 4000 м  дымка  ясно 
+0.2 -0.8 93 +1  1021.9  -1.3  764  308           
06 16.12.11 070 (В) 10 км    3/0 средняя, верхняя 
[Ac trans|Ci fib]
+0.8 -0.8 89 +1  1020.6  -1.3  763  306  +0.2         
09 16.12.11 080 (В) 10 км    3/0 верхняя 
[Ci fib]
+8.1 +1.5 63 +9  1018.3  -2.2  761  298           
12 16.12.11 060 (СВ) 10 км    8/0 средняя, верхняя 
[Ac lent|Ci fib]
+9.5 +3.5 66 +10  1015.3  -3  759  295           
15 16.12.11 060 (СВ) 10 км    9/0 средняя, верхняя 
[Ac trans|Ci]
+6.1 +3.2 82 +7  1014.1  -3  758  298    +10.6       
18 16.12.11 080 (В) 10 км    9/0 средняя, верхняя 
[Ac trans|Ci fib]
+3.7 +0.4 79 +3  1013.2  -0.9  757  301    +10.6       
21 16.12.11 090 (В) 10 км    ясно 
+2.2 -0.3 84 +2  1011.8  -0.9  756  302           
00 17.12.11 060 (СВ) 10 км    ясно 
+1.1 -0.8 87 +2  1012  0.1  756  304           
03 17.12.11 090 (В) 10 км    10/0 верхняя 
[Ci]
+1.2 -1 85 +2  1011.3  -0.6  756  303           
06 17.12.11 100 (В) 10 км    6/3 1000 м средняя, верхняя 
[Sc|Ac trans|Cc]
+1.7 -1.2 81 +1  1012.1  0.8  756  303  +0.9         
09 17.12.11 100 (В) 10 км    6/0 средняя, верхняя 
[Ac trans|Cc]
+6.5 -0.4 61 +6  1011.6  -0.5  756  298           
12 17.12.11 090 (В) 10 км    4/0 средняя 
[Ac trans]
+9.4 +2.3 61 +10  1011.1  -0.6  756  294           
15 17.12.11 080 (В) 10 км    8/0 средняя, верхняя 
[Ac trans|Ci fib]
+8.2 +2.7 68 +8  1011.8  0.7  756  295           
18 17.12.11 070 (В) 10 км    5/0 верхняя 
[Ci fib]
+5.6 +2.4 80 +5  1011.8  756  298    +10.5       
21 17.12.11 060 (СВ) 10 км    8/0 верхняя 
[Ci fib]
+4 +0.6 78 +5  1011.5  -0.4  756  300           
00 18.12.11 090 (В) 10 км    10/10 1000 м 
[Sc]
+4 +0 75 +4  1011.9  0.4  756  300           
03 18.12.11 100 (В) 10 км    10/10 1000 м 
[Sc]
+4 -0.3 74 +4  1011.5  -0.4  756  300           
06 18.12.11 100 (В) 10 км    10/6 1000 м средняя, верхняя 
[Sc|Ac trans|Ci fib]
+4.4 -0.5 70 +3  1012.1  0.8  756  300  +3.5         
09 18.12.11 050 (СВ) 10 км    10/5 1000 м средняя 
[Sc|Ac As]
+8 +1.5 64 +9  1013.1  757  296           
12 18.12.11 210 (ЮЗ) 10 км    10/6 1000 м кучево-дожд., средняя 
[Cb cap|Ac As]
+15 -1.8 31 +15  1014.8  1.8  758  290           
15 18.12.11 250 (З) 10 км  слаб. ливневой дождь  10/10 600 м кучево-дожд. 
[Cb cap]
+12.7 +0.4 43 +14  1017.4  2.6  760  293    +15.2       
18 18.12.11 240 (ЮЗ) 10 км  слаб. ливневой дождь  10/10 600 м кучево-дожд. 
[Cb cap]
+13.6 +1.8 45 +14  1020.3  2.8  763  292    +15.2       
21 18.12.11 200 (Ю) 4000 м  слаб. ливневой дождь  10/10 600 м кучево-дожд. 
[Cb cap]
+10.6 +6.1 74 +12  1022  1.7  764  295           
00 19.12.11 тихо ()   4000 м  слаб. дождь{ливн. осадки}  10/10 600 м 
[Ns]
+7.3 +5.7 90 +7  1024.3  765  299           
03 19.12.11 090 (В) 10 км  {дождь}  9/9 300 м 
[St]
+7.1 +4.9 86 +8  1025  0.7  766  300           
06 19.12.11 060 (СВ) 10 км  {снег}  10/10 600 м 
[Sc]
+7.1 +4.2 82 +8  1026.3  1.3  767  301  +6.8       
09 19.12.11 060 (СВ) 10 км    10/4 1000 м средняя, верхняя 
[Sc|Ac trans|Cc]
+9.1 +5.3 77 +10  1025.5  -0.8  766  298           
12 19.12.11 070 (В) 10 км    10/8 1000 м средняя 
[Sc|Ac und]
+10.6 +5 68 +12  1024.5  -1  766  296           
15 19.12.11 060 (СВ) 10 км    10/4 1000 м средняя 
[Sc|Ac und]
+8.3 +4.4 76 +8  1024.7  0.1  766  299    +10.8       
18 19.12.11 090 (В) 10 км    4/0 средняя 
[Ac trans]
+6.9 +4.4 84 +7  1023.7  -0.9  765  300    +10.8       
21 19.12.11 060 (СВ) 4000 м  дымка  ясно 
+4.4 +3.3 93 +5  1022.8  -1  764  303           
00 20.12.11 060 (СВ) 4000 м  дымка  10/0 верхняя 
[Cs]
+3.9 +2.2 89 +3  1021.3  -1.5  763  303           
03 20.12.11 060 (СВ) 4000 м  дымка  10/0 средняя 
[As trans]
+2.5 +0.7 88 +2  1019.7  -1.5  762  304           
06 20.12.11 080 (В) 4000 м  дымка  10/8 1000 м средняя 
[Sc|As trans]
+2.5 +0.4 86 +2  1018.3  -1.4  761  304  +2.4         
09 20.12.11 100 (В) 10 км    10/0 средняя 
[Ac As]
+5.4 +1.5 76 +6  1016.6  -1.7  760  300           
12 20.12.11 070 (В) 10 км    10/10 1000 м 
[Sc]
+6.6 +3 78 +6  1014.8  -1.8  758  298           
15 20.12.11 тихо ()   10 км    10/0 средняя 
[Ac und]
+5.6 +2.9 83 +6  1013.6  757  299           
18 20.12.11 тихо ()   10 км    10/0 средняя 
[Ac und]
+5.5 +2.5 81 +6  1012.7  -0.9  757  299    +10.8       
21 20.12.11 110 (В) 10 км    4/3 1500 м средняя 
[Sc|Ac trans]
+5.3 +1.8 78 +6  1012.2  -0.5  756  299           
00 21.12.11 070 (В) 10 км    8/4 1000 м средняя 
[Sc|Ac trans]
+4.3 +1.8 84 +5  1010.7  -1.5  755  299           
03 21.12.11 050 (СВ) 10 км    3/0 средняя 
[Ac trans]
+3.7 +1.4 85 +5  1010.3  -0.4  755  300           
06 21.12.11 360 (С) 10 км  в посл. час ливневой дождь  10/6 1000 м кучево-дожд., средняя, верхняя 
[Cb cap|Ac trans|Ci fib]
+5 +2.4 83 +6  1011.3  756  299  +3.6         
09 21.12.11 190 (Ю) 10 км    10/3 1000 м кучево-дожд., верхняя 
[Cb cap|Cc]
+15.2 +7.3 59 +15  1010.8  -0.4  755  287           
12 21.12.11 240 (ЮЗ) 10 км    10/8 600 м кучево-дожд., средняя 
[Cb cap|Ac und]
+15.1 +6.5 56 +15  1012.7  1.9  757  288           
15 21.12.11 200 (Ю) 10 км  в посл. час ливневой дождь  10/8 600 м кучево-дожд., средняя 
[Cb cap|Ac und]
+10.8 +7.3 79 +11  1014.8  2.1  758  293    +16.3       
18 21.12.11 190 (Ю) 10 км  {ливн. осадки}  10/6 600 м кучево-дожд., средняя 
[Cb cap|Ac und]
+8.9 +5.6 80 +9  1016.1  1.2  759  295    +16.3  0.7     
21 21.12.11 200 (Ю) 10 км    4/4 300 м 
[St]
+7 +4.5 84 +8  1017.5  1.4  760  298           
00 22.12.11 260 (З) 10 км    3/0 средняя 
[Ac trans]
+8 +2.3 67 +8  1019  1.5  761  298           
03 22.12.11 210 (ЮЗ) 10 км    3/3 600 м 
[Sc]
+6.5 +1.5 70 +6  1020.1  1.1  762  300           
06 22.12.11 320 (СЗ) 10 км    8/8 1000 м 
[Sc]
+5.1 +2.1 81 +6  1021.8  1.7  764  302  +3.4         
09 22.12.11 тихо ()   10 км    9/9 1000 м 
[Sc]
+7 +1.1 66 +7  1022  0.2  764  300           
12 22.12.11 090 (В) 10 км    8/3 1000 м средняя, верхняя 
[Sc|Ac trans|Cc]
+8.5 +2.1 64 +10  1021.1  -0.9  763  298           
15 22.12.11 060 (СВ) 10 км    6/6 1000 м 
[Sc]
+6 +1.9 75 +7  1020.4  1.1  762  300    +9.4       
18 22.12.11 040 (СВ) 10 км    8/8 1000 м 
[Sc]
+5.3 +2.1 80 +6  1019.9  -0.5  762  301    +9.4       
21 22.12.11 040 (СВ) 10 км    4/0 средняя 
[Ac trans]
+4 +1.5 84 +5  1018.7  -1.2  761  302           
00 23.12.11 030 (СВ) 10 км    10/10 1000 м 
[Sc]
+3.1 +1 86 +4  1017.1  -1.6  760  303           
03 23.12.11 310 (СЗ) 10 км    6/6 1000 м 
[Sc]
+2.7 +1.4 91 +3  1016  -1.1  759  303           
06 23.12.11 040 (СВ) 10 км    10/10 1000 м 
[Sc]
+3.5 +2.2 91 +4  1015.8  -0.2  759  302  +2.3         
09 23.12.11 040 (СВ) 4000 м  дымка  10/10 300 м 
[St]
+4.5 +3 90 +5  1014.8  -1  758  300           
12 23.12.11 050 (СВ) 4000 м  дымка  10/10 300 м 
[St]
+5 +3.3 89 +6  1013.4  -1.3  757  299           
15 23.12.11 020 (С) 4000 м  дымка  10/10 300 м 
[St]
+4.6 +3.1 90 +5  1013.4  757  300           
18 23.12.11 020 (С) 4000 м  дымка  10/10 300 м 
[St]
+4.8 +3.5 91 +6  1012.6  -0.8  757  299    +9.4       
21 23.12.11 030 (СВ) 2000 м  слаб. морось  10/10 300 м 
[St]
+4.4 +3.8 96 +5  1011.5  -1.1  756  299           
00 24.12.11 040 (СВ) 1000 м  дымка{морось}  10/10 300 м 
[St]
+4 +3.4 96 +5  1010.8  -0.7  755  299           
03 24.12.11 030 (СВ) 2000 м  дымка  10/10 300 м 
[St]
+4.1 +3.2 94 +5  1009.8  -1  755  299           
06 24.12.11 040 (СВ) 4000 м  в посл. час дождь  10/10 600 м 
[Sc]
+4.1 +2.9 92 +5  1009.8  0.1  755  299  +3.3    0.0     
09 24.12.11 060 (СВ) 4000 м  в посл. час дождь  10/10 600 м 
[Sc]
+4.6 +2.6 87 +4  1009.2  -0.5  754  298           
12 24.12.11 120 (ЮВ) 10 км  {дождь}  10/10 600 м 
[Sc]
+5.5 +2.9 83 +6  1008.9  -0.3  754  297           
15 24.12.11 090 (В) 4000 м  слаб. ливневой дождь  10/10 600 м кучево-дожд. 
[Cb cap]
+5.1 +3.5 89 +6  1010.4  1.4  755  298    +5.5       
18 24.12.11 040 (СВ) 4000 м  слаб. дождь{ливн. осадки}  10/10 300 м 
[Ns]
+4.7 +3.5 92 +4  1010.9  0.5  755  299    +5.5  0.6     
21 24.12.11 120 (ЮВ) 4000 м  дымка{дождь}  10/10 300 м 
[St]
+4.9 +3.7 92 +6  1012.4  1.5  757  299           
00 25.12.11 110 (В) 4000 м  дымка{дождь}  10/10 300 м 
[St]
+5.3 +4.2 93 +6  1013.5  1.5  757  299           
03 25.12.11 210 (ЮЗ) 10 км    9/6 1000 м средняя, верхняя 
[Sc|Ac trans|Ci fib]
+6.2 +4 86 +6  1015  1.4  758  298           
06 25.12.11 270 (З) 4000 м  слаб. морось  10/10 300 м 
[St]
+4.8 +3.6 92 +4  1017.9  2.9  761  301  +4.4         
09 25.12.11 270 (З) 10 км  {морось}  10/10 200 м 
[St|Ns]
+4.2 +2.8 91 +4  1020.1  2.2  762  302           
12 25.12.11 270 (З) 10 км    10/10 300 м 
[St]
+4.1 +1.9 86 +4  1021.7  1.6  764  303           
15 25.12.11 290 (З) 10 км    10/10 300 м 
[St]
+3.3 +0.8 84 +2  1024  2.2  765  305    +6.2       
18 25.12.11 290 (З) 10 км    10/10 300 м 
[St]
+2.7 +0.3 84 +2  1025.9  1.8  767  306    +6.2       
21 25.12.11 310 (СЗ) 10 км    10/10 300 м 
[St]
+2.2 +0.1 86 +3  1027.6  1.7  768  307           
00 26.12.11 260 (З) 10 км    10/10 300 м 
[St]
+2.3 +0 85 +3  1028.9  1.4  769  307           
03 26.12.11 270 (З) 10 км    10/10 300 м 
[St]
+2.1 -1.1 79 +1  1029.7  0.8  769  308           
06 26.12.11 270 (З) 4000 м  дымка  10/10 300 м 
[St]
+2.1 -0.2 85 +3  1031.4  1.7  771  308  +2.1         
09 26.12.11 280 (З) 10 км    10/10 300 м 
[St]
+2.9 -0.8 77 +2  1032.1  0.7  771  308           
12 26.12.11 270 (З) 10 км    9/8 300 м средняя 
[St|Ac trans]
+3.4 -0.9 73 +3  1032.5  0.4  772  307           
15 26.12.11 270 (З) 10 км    10/8 600 м средняя 
[St|Ac und]
+2.2 -0.8 81 +2  1033.1  0.6  772  309    +3.5       
18 26.12.11 270 (З) 10 км    ясно 
+0.1 -2.1 85 -1  1033.3  -0.1  772  311    +3.5       
21 26.12.11 250 (З) 10 км    9/9 1000 м 
[Sc]
-1.1 -2.6 90 -1  1034.1  0.8  773  313           
00 27.12.11 250 (З) 10 км    5/5 300 м 
[St]
+1.1 -1 86 1032.3  -1.7  771  310           
03 27.12.11 280 (З) 10 км    9/9 600 м кучево-дожд. 
[Cb cap]
+3.3 +1 85 +2  1031.6  -0.7  771  307           
06 27.12.11 260 (З) 10 км    10/10 600 м кучево-дожд. 
[Cb cap]
+4.8 +1.4 79 +4  1032.4  -0.7  771  305  -1.4         
09 27.12.11 280 (З) 10 км    10/10 600 м 
[Sc]
+5.8 +2 77 +5  1031.7  -0.7  771  304           
12 27.12.11 270 (З) 10 км    10/10 600 м 
[Sc]
+5.9 +3.2 83 +5  1031.1  -0.6  771  303           
15 27.12.11 270 (З) 1000 м  слаб. дождь  10/10 300 м 
[Frnb|Ns]
+5.3 +4.2 93 +4  1031.3  0.2  771  304    +6.1       
18 27.12.11 240 (ЮЗ) 10 км  {дождь}  10/10 300 м 
[Frnb|Ns]
+6.1 +3.7 85 +6  1030.1  -1.2  770  303    +6.1       
21 27.12.11 230 (ЮЗ) н/о    н/о 
+7.3 +2.6 72 +6  1028.9  -1.2  769  301           
00 28.12.11 240 (ЮЗ) 10 км  {дождь}  10/10 300 м 
[St]
+7.2 +2.3 71 +6  1027.9  -1  768  301           
03 28.12.11 230 (ЮЗ) 10 км    10/10 300 м 
[St]
+7.4 +3.1 74 +6  1026.3  -1.5  767  300           
06 28.12.11 240 (ЮЗ) 10 км    10/10 300 м 
[St]
+7.6 +3 73 +6  1026.7  0.3  767  300  +5.3       
09 28.12.11 250 (З) 10 км    10/10 300 м 
[St]
+8.2 +3.3 71 +7  1026.4  -0.3  767  300           
12 28.12.11 270 (З) 4000 м  слаб. дождь  10/10 200 м 
[Frnb|Ns]
+6.1 +5.3 95 +5  1026.5  -0.1  767  302           
15 28.12.11 260 (З) 10 км  {дождь, морось}  10/10 300 м 
[St|Ns]
+6.5 +5.1 91 +6  1027.2  -0.1  768  301    +8.3       
18 28.12.11 280 (З) 10 км  {дождь}  10/10 300 м 
[St|Ns]
+6.4 +4.7 89 +5  1029.2  769  302    +8.3     
21 28.12.11 270 (З) 10 км    5/5 300 м 
[St]
+4.9 +3.8 92 +6  1030.2  770  304           
00 29.12.11 320 (СЗ) 10 км    10/10 300 м 
[St]
+4.4 +3 91 +4  1030.2  770  305           
03 29.12.11 270 (З) 10 км    10/10 300 м 
[St]
+3.8 +2.4 91 +5  1030.3  0.1  770  306           
06 29.12.11 тихо ()   10 км    10/10 300 м 
[St]
+3.8 +2.2 89 +4  1030.9  0.5  770  306  +3.8         
09 29.12.11 090 (В) 10 км    10/10 300 м 
[St]
+4 +2.2 88 +4  1029.9  -0.9  770  305           
12 29.12.11 080 (В) 10 км    9/9 300 м 
[St]
+4.8 +2.3 84 +4  1028.1  -1.8  768  304           
15 29.12.11 040 (СВ) 10 км    8/8 300 м 
[St]
+3 +1.7 91 +4  1026.7  -1.4  767  306    +5.2       
18 29.12.11 050 (СВ) 0200 м  туман  ясно 
+2.9 +2.5 97 +4  1025.6  -1.1  766  305    +5.2       
21 29.12.11 060 (СВ) 0200 м  туман  ?/?  
+1.3 +1 98 +2  1023.5  -2.1  765  307           
00 30.12.11 050 (СВ) 0200 м  туман  ?/?  
+0.7 +0.4 98 +1  1021.7  -1.8  763  307           
03 30.12.11 090 (В) 0200 м  туман  ?/?  
-0.1 -0.4 98 +1  1019.9  -1.8  762  307           
06 30.12.11 100 (В) 0200 м  туман  ясно 
-0.1 -0.4 98 +1  1019.9  -0.9  761  307  -0.1         
09 30.12.11 090 (В) 0500 м  туман  ясно 
+0.2 -0.1 98 +1  1017.6  -1.3  760  306           
12 30.12.11 110 (В) 1000 м  дымка{туман}  10/10 100 м 
[St]
+0.8 +0.3 96 1015.7  -1.9  759  305           
15 30.12.11 070 (В) 4000 м  дымка  8/3 300 м средняя, верхняя 
[St|Ac trans|Ci fib]
+1.2 +0.3 94 +2  1015.7  759  304    +1.7       
18 30.12.11 040 (СВ) 4000 м  дымка  6/0 средняя 
[Ac trans]
+1.5 +0.9 96 +2  1015.8  759  304    +1.7       
21 30.12.11 180 (Ю) 10 км    6/0 средняя 
[Ac trans]
+6.5 +2.9 78 +6  1015.8  0.1  759  298           
00 31.12.11 тихо ()   10 км    ясно 
+2.9 +1.4 90 +3  1016.3  0.1  759  303           
03 31.12.11 тихо ()   10 км    9/4 1000 м средняя 
[Sc|Ac trans]
+2.8 +1.6 92 +3  1015.2  -1.1  759  302           
06 31.12.11 060 (СВ) 10 км    10/4 1000 м средняя, верхняя 
[Sc|Ac trans|Ci fib]
+2.7 +1.2 90 +3  1016.8  1.6  760  303  +0.4         
09 31.12.11 110 (В) 10 км    10/0 средняя, верхняя 
[Ac trans|Ci fib]
+7.2 +0.6 63 +8  1015.7  -1  759  298           
12 31.12.11 090 (В) 10 км    10/0 верхняя 
[Ci fib]
+10.4 +0.6 51 +11  1014.6  -1.1  758  294           
15 31.12.11 080 (В) 10 км    10/3 1000 м верхняя 
[Sc|Ci fib]
+6.1 +2.2 76 +7  1014.8  0.2  758  299    +10.5       
18 31.12.11 тихо ()   10 км    6/4 1000 м средняя 
[Sc|Ac trans]
+4.6 +1.6 81 +5  1014.4  -0.4  758  300    +10.5       
21 31.12.11 тихо ()   10 км    10/8 1000 м средняя 
[Sc|Ac und]
+3.7 +1.4 85 +4  1013.9  -0.5  758  301           
00 01.01.12 070 (В) 10 км    10/5 1000 м средняя 
[Sc diur, vesp|Ac und]
+3.3 +1.8 90 +4  1013.7  -0.2  758  301           
03 01.01.12 080 (В) 10 км    10/3 1000 м средняя, верхняя 
[Sc|Ac trans|Ci fib]
+2.2 +1 92 +3  1012.8  -1  757  302           
Время (UTC), дата Ветер
(°,м/с) 
Видим.   Явления Облачность Т
(°С)
Тd
(°С)
f(%) Тe
(°С)
Pmin
(гПа)
dP
(гПа)
Po
(мм)
O2
(г/м3)
Тmin Tmax R s Состояние
почвы